Terug naar catalogus

STARLINK-30878

ActiefCommunicatieVLEO
NORAD 58359·PAYLOAD·🇺🇸 United States

Gelanceerd Nov 18, 2023 vanaf Cape Canaveral Space Force Station

Loading…

Volgende Passages (komende 24 uur)

TLE

VersSource: CelesTrak SupGP

Epoch: Sep 15, 2026, 03:09 UTC

1 58359C 23177J   26258.13173611  .00029712  00000+0  10763-2 0  2583
2 58359  43.0038   4.0761 0001637 271.7259 347.0540 15.27559925    12

Volg STARLINK-30878 in realtime met AllMySat

Download on the App Store